Tracking 30264 objects as of 16-Feb-2025
HD Live streaming from Space Station
objects crossing your sky now

PEGASUS DEB

Track PEGASUS DEB now!
10-day predictions


NORAD ID: 39922
Int'l Code: 1994-029AFV
Perigee: 541.2 km
Apogee: 708.4 km
Inclination: 81.6 °
Period: 97.1 minutes
Semi major axis: 6995 km
RCS: 0.0142 m2 (small)
Launch date: May 19, 1994
Source: United States (US)
Launch site: AIR FORCE WESTERN TEST RANGE (AFWTR)

Note: This is SATELLITE DEBRIS
Your satellite tracking list
Your tracking list is empty




NASA's NSSDC Master Catalog

Two Line Element Set (TLE):
1 39922U 94029AFV 25045.97397008  .00014649  00000-0  15570-2 0  9992
2 39922  81.6045 132.0367 0119471 117.1227 244.2230 14.83711031572300
Source of the keplerian elements: AFSPC